| time (UTC) | temp F | wind direction | speed MPH | gust MPH | rain 1hr in | rain 24hr in | rain mn in | humidity % | barometer mb |
| 20260505102016 | 35 | 225 | 3.0 | 15.0 | 0.00 | 0.04 | 0.00 | 61 | 1002.6 |
| 20260505101056 | 35 | 225 | 1.0 | 4.0 | 0.00 | 0.04 | 0.00 | 63 | 1002.5 |
| 20260505100016 | 35 | 225 | 3.0 | 8.0 | 0.00 | 0.04 | 0.00 | 63 | 1002.4 |
| 20260505095036 | 35 | 225 | 1.0 | 5.0 | 0.00 | 0.04 | 0.00 | 61 | 1002.3 |
| 20260505094016 | 36 | 225 | 1.0 | 6.0 | 0.00 | 0.04 | 0.00 | 60 | 1002.3 |
| 20260505093016 | 36 | 225 | 2.0 | 6.0 | 0.00 | 0.04 | 0.00 | 59 | 1002.3 |
| 20260505092016 | 36 | 225 | 2.0 | 5.0 | 0.00 | 0.04 | 0.00 | 60 | 1002.3 |
| 20260505091016 | 36 | 225 | 2.0 | 9.0 | 0.00 | 0.04 | 0.00 | 60 | 1002.2 |
| 20260505090036 | 36 | 203 | 3.0 | 6.0 | 0.00 | 0.04 | 0.00 | 60 | 1001.9 |
| 20260505085016 | 35 | 315 | 3.0 | 8.0 | 0.00 | 0.04 | 0.00 | 61 | 1001.5 |
| 20260505084016 | 36 | 68 | 2.0 | 9.0 | 0.00 | 0.04 | 0.00 | 61 | 1001.3 |
| 20260505083056 | 36 | 338 | 3.0 | 11.0 | 0.00 | 0.04 | 0.00 | 61 | 1001.3 |
| 20260505082016 | 36 | 180 | 4.0 | 11.0 | 0.00 | 0.04 | 0.00 | 62 | 1001.3 |
| 20260505081056 | 36 | 338 | 4.0 | 14.0 | 0.00 | 0.04 | 0.00 | 62 | 1001.2 |
| 20260505080016 | 36 | 338 | 3.0 | 8.0 | 0.00 | 0.04 | 0.00 | 62 | 1001.3 |
| 20260505075016 | 35 | 338 | 5.0 | 14.0 | 0.00 | 0.04 | 0.00 | 63 | 1001.3 |
| 20260505074036 | 35 | 293 | 3.0 | 10.0 | 0.00 | 0.04 | 0.00 | 63 | 1001.4 |
| 20260505073036 | 35 | 293 | 2.0 | 4.0 | 0.00 | 0.04 | 0.00 | 63 | 1001.5 |
| 20260505072015 | 35 | 248 | 3.0 | 10.0 | 0.00 | 0.04 | 0.00 | 64 | 1001.6 |
| 20260505071016 | 35 | 0 | 1.0 | 4.0 | 0.00 | 0.04 | 0.00 | 65 | 1001.5 |
| 20260505070016 | 35 | 270 | 1.0 | 4.0 | 0.00 | 0.04 | 0.00 | 67 | 1001.5 |
| 20260505065036 | 35 | 270 | 2.0 | 6.0 | 0.00 | 0.04 | 0.00 | 68 | 1001.6 |
| 20260505064016 | 35 | 270 | 2.0 | 7.0 | 0.00 | 0.04 | 0.00 | 68 | 1001.6 |
| 20260505063036 | 35 | 270 | 1.0 | 7.0 | 0.00 | 0.04 | 0.00 | 68 | 1001.4 |
| 20260505062015 | 35 | 248 | 1.0 | 4.0 | 0.00 | 0.04 | 0.00 | 68 | 1001.5 |
| 20260505061015 | 35 | 0.0 | 2.0 | 0.00 | 0.04 | 0.00 | 67 | 1001.5 | |
| 20260505060016 | 36 | 0.0 | 4.0 | 0.00 | 0.04 | 0.00 | 68 | 1001.5 | |
| 20260505055016 | 36 | 0.0 | 4.0 | 0.00 | 0.04 | 0.00 | 67 | 1001.5 | |
| 20260505054016 | 36 | 0.0 | 2.0 | 0.00 | 0.04 | 0.00 | 67 | 1001.4 | |
| 20260505053015 | 36 | 270 | 2.0 | 6.0 | 0.00 | 0.04 | 0.00 | 68 | 1001.3 |
| 20260505052017 | 36 | 293 | 1.0 | 5.0 | 0.00 | 0.04 | 0.00 | 69 | 1001.3 |
| 20260505051017 | 36 | 293 | 1.0 | 4.0 | 0.00 | 0.04 | 0.00 | 70 | 1001.2 |
| 20260505041016 | 35 | 0.0 | 2.0 | 0.01 | 0.04 | 0.04 | 72 | 1001.1 | |
| 20260505040015 | 35 | 0.0 | 2.0 | 0.00 | 0.03 | 0.03 | 71 | 1001.1 | |
| 20260505035016 | 35 | 0.0 | 0.0 | 0.00 | 0.03 | 0.03 | 71 | 1001.0 | |
| 20260505034015 | 35 | 0.0 | 0.0 | 0.00 | 0.03 | 0.03 | 70 | 1001.0 | |
| 20260505033035 | 36 | 0.0 | 0.0 | 0.01 | 0.03 | 0.03 | 69 | 1001.0 | |
| 20260505032015 | 36 | 0.0 | 0.0 | 0.01 | 0.03 | 0.03 | 69 | 1000.9 | |
| 20260505031017 | 37 | 0.0 | 0.0 | 0.01 | 0.03 | 0.03 | 69 | 1000.9 | |
| 20260505030017 | 37 | 45 | 1.0 | 3.0 | 0.01 | 0.03 | 0.03 | 69 | 1000.9 |
| 20260505025018 | 37 | 23 | 1.0 | 5.0 | 0.01 | 0.03 | 0.03 | 68 | 1000.7 |
| 20260505024038 | 38 | 158 | 3.0 | 9.0 | 0.01 | 0.03 | 0.03 | 67 | 1000.8 |
| 20260505023017 | 39 | 315 | 7.0 | 16.0 | 0.00 | 0.02 | 0.02 | 63 | 1001.2 |
| 20260505022017 | 41 | 315 | 4.0 | 9.0 | 0.00 | 0.02 | 0.02 | 58 | 1000.5 |
| 20260505021017 | 41 | 270 | 2.0 | 7.0 | 0.00 | 0.02 | 0.02 | 58 | 999.9 |
| 20260505020017 | 41 | 338 | 3.0 | 9.0 | 0.00 | 0.02 | 0.02 | 58 | 999.5 |
| 20260505015017 | 41 | 203 | 1.0 | 6.0 | 0.00 | 0.02 | 0.02 | 57 | 999.4 |
| 20260505014037 | 41 | 248 | 3.0 | 15.0 | 0.00 | 0.02 | 0.02 | 57 | 999.4 |
| 20260505013015 | 42 | 293 | 3.0 | 9.0 | 0.00 | 0.02 | 0.02 | 56 | 999.1 |
| 20260505012017 | 42 | 203 | 4.0 | 15.0 | 0.00 | 0.02 | 0.02 | 56 | 999.0 |
| 20260505011017 | 42 | 225 | 3.0 | 10.0 | 0.00 | 0.02 | 0.02 | 56 | 998.8 |
| 20260505010037 | 43 | 203 | 4.0 | 11.0 | 0.00 | 0.02 | 0.02 | 56 | 998.7 |
| 20260505005037 | 43 | 0 | 6.0 | 15.0 | 0.00 | 0.02 | 0.02 | 56 | 998.8 |
| 20260505004017 | 43 | 248 | 4.0 | 14.0 | 0.00 | 0.02 | 0.02 | 54 | 998.6 |
| 20260505003017 | 44 | 225 | 6.0 | 21.0 | 0.00 | 0.02 | 0.02 | 55 | 998.7 |
| 20260505002017 | 44 | 203 | 4.0 | 12.0 | 0.00 | 0.02 | 0.02 | 56 | 998.8 |
| 20260505001017 | 44 | 225 | 3.0 | 8.0 | 0.00 | 0.02 | 0.02 | 54 | 998.5 |
| 20260505000017 | 45 | 225 | 6.0 | 15.0 | 0.00 | 0.02 | 0.02 | 52 | 998.4 |
| 20260504235037 | 45 | 225 | 4.0 | 12.0 | 0.00 | 0.02 | 0.02 | 53 | 998.2 |
| 20260504234017 | 44 | 225 | 3.0 | 12.0 | 0.00 | 0.02 | 0.02 | 57 | 998.2 |
| 20260504233017 | 44 | 338 | 4.0 | 15.0 | 0.00 | 0.02 | 0.02 | 58 | 998.2 |
| 20260504232017 | 46 | 315 | 7.0 | 21.0 | 0.00 | 0.02 | 0.02 | 56 | 998.5 |
| 20260504231017 | 48 | 203 | 4.0 | 10.0 | 0.00 | 0.02 | 0.02 | 46 | 997.8 |
| 20260504230037 | 47 | 225 | 4.0 | 13.0 | 0.00 | 0.02 | 0.02 | 48 | 997.5 |
| 20260504225017 | 48 | 315 | 5.0 | 18.0 | 0.00 | 0.02 | 0.02 | 49 | 997.4 |
| 20260504224017 | 48 | 338 | 6.0 | 16.0 | 0.00 | 0.02 | 0.02 | 51 | 997.3 |
| 20260504223017 | 49 | 225 | 4.0 | 11.0 | 0.00 | 0.02 | 0.02 | 48 | 996.9 |
| 20260504222037 | 50 | 203 | 5.0 | 19.0 | 0.00 | 0.02 | 0.02 | 49 | 996.7 |
| 20260504221017 | 49 | 270 | 6.0 | 17.0 | 0.00 | 0.02 | 0.02 | 46 | 996.5 |
| 20260504220017 | 48 | 338 | 5.0 | 15.0 | 0.00 | 0.02 | 0.02 | 55 | 996.4 |
| 20260504215037 | 50 | 315 | 9.0 | 23.0 | 0.00 | 0.02 | 0.02 | 50 | 996.9 |
| 20260504214017 | 51 | 248 | 5.0 | 17.0 | 0.00 | 0.02 | 0.02 | 48 | 996.1 |
| 20260504213017 | 49 | 338 | 6.0 | 27.0 | 0.01 | 0.02 | 0.02 | 49 | 996.0 |
| 20260504212016 | 53 | 315 | 7.0 | 17.0 | 0.01 | 0.02 | 0.02 | 39 | 995.8 |
| 20260504211037 | 53 | 225 | 5.0 | 13.0 | 0.01 | 0.02 | 0.02 | 42 | 995.5 |
| 20260504210057 | 52 | 225 | 5.0 | 17.0 | 0.01 | 0.02 | 0.02 | 48 | 995.5 |
| 20260504205016 | 50 | 225 | 5.0 | 10.0 | 0.01 | 0.02 | 0.02 | 53 | 995.5 |
| 20260504204017 | 47 | 225 | 3.0 | 9.0 | 0.01 | 0.02 | 0.02 | 59 | 995.5 |
| 20260504203017 | 50 | 338 | 11.0 | 24.0 | 0.00 | 0.01 | 0.01 | 50 | 995.5 |
| 20260504202037 | 52 | 225 | 8.0 | 20.0 | 0.00 | 0.01 | 0.01 | 45 | 995.1 |
| 20260504201017 | 51 | 315 | 7.0 | 21.0 | 0.00 | 0.01 | 0.01 | 52 | 995.0 |
| 20260504200016 | 49 | 338 | 6.0 | 22.0 | 0.00 | 0.01 | 0.01 | 59 | 994.9 |
| 20260504195016 | 52 | 338 | 8.0 | 21.0 | 0.00 | 0.01 | 0.01 | 48 | 994.8 |
| 20260504194017 | 53 | 248 | 5.0 | 11.0 | 0.00 | 0.01 | 0.01 | 46 | 994.2 |
| 20260504193017 | 50 | 315 | 6.0 | 19.0 | 0.00 | 0.01 | 0.01 | 56 | 994.1 |
| 20260504192016 | 53 | 315 | 7.0 | 22.0 | 0.00 | 0.01 | 0.01 | 47 | 994.3 |
| 20260504191016 | 52 | 0 | 8.0 | 19.0 | 0.00 | 0.01 | 0.01 | 48 | 994.0 |
| 20260504190016 | 51 | 338 | 7.0 | 22.0 | 0.00 | 0.01 | 0.01 | 51 | 993.9 |
| 20260504185016 | 54 | 338 | 6.0 | 16.0 | 0.00 | 0.01 | 0.01 | 46 | 994.0 |
| 20260504184016 | 54 | 338 | 8.0 | 21.0 | 0.00 | 0.01 | 0.01 | 40 | 993.3 |
| 20260504183016 | 56 | 338 | 7.0 | 19.0 | 0.00 | 0.01 | 0.01 | 39 | 993.2 |
| 20260504182036 | 55 | 225 | 5.0 | 16.0 | 0.00 | 0.01 | 0.01 | 42 | 993.1 |
| 20260504181016 | 52 | 203 | 5.0 | 21.0 | 0.00 | 0.01 | 0.01 | 49 | 993.1 |
| 20260504180016 | 52 | 315 | 11.0 | 24.0 | 0.00 | 0.01 | 0.01 | 47 | 993.3 |
| 20260504175016 | 54 | 315 | 9.0 | 27.0 | 0.00 | 0.01 | 0.01 | 40 | 992.6 |
| 20260504174036 | 53 | 338 | 6.0 | 25.0 | 0.00 | 0.01 | 0.01 | 46 | 992.7 |
| 20260504173016 | 53 | 315 | 8.0 | 19.0 | 0.00 | 0.01 | 0.01 | 45 | 992.3 |
| 20260504172016 | 52 | 225 | 5.0 | 21.0 | 0.00 | 0.01 | 0.01 | 48 | 992.2 |
| 20260504171016 | 52 | 338 | 5.0 | 18.0 | 0.00 | 0.01 | 0.01 | 49 | 992.1 |
| 20260504151016 | 53 | 225 | 5.0 | 15.0 | 0.01 | 0.01 | 0.01 | 53 | 990.1 |
| 20260504141016 | 53 | 225 | 2.0 | 6.0 | 0.00 | 0.00 | 0.00 | 57 | 989.8 |